TimeCDT,TemperatureF,Dew PointF,Humidity,Sea Level PressureIn,VisibilityMPH,Wind Direction,Wind SpeedMPH,Gust SpeedMPH,PrecipitationIn,Events,Conditions,WindDirDegrees,DateUTC
12:54 AM,48.0,43.0,83,30.19,10.0,North,6.9,-,N/A,,Overcast,350,2012-10-07 05:54:00
1:54 AM,48.0,44.1,86,30.20,10.0,North,5.8,-,N/A,,Overcast,350,2012-10-07 06:54:00
2:54 AM,48.0,43.0,83,30.18,10.0,North,8.1,-,N/A,,Overcast,10,2012-10-07 07:54:00
3:54 AM,48.0,42.1,80,30.20,10.0,North,8.1,-,N/A,,Overcast,350,2012-10-07 08:54:00
4:54 AM,46.9,41.0,80,30.21,10.0,North,9.2,-,N/A,,Overcast,360,2012-10-07 09:54:00
5:54 AM,46.9,39.0,74,30.22,10.0,North,8.1,-,N/A,,Overcast,360,2012-10-07 10:54:00
6:54 AM,45.0,39.0,80,30.24,10.0,North,8.1,-,N/A,,Scattered Clouds,350,2012-10-07 11:54:00
7:39 AM,44.6,39.2,81,30.24,10.0,North,6.9,-,N/A,,Mostly Cloudy,350,2012-10-07 12:39:00
7:54 AM,45.0,39.9,82,30.26,10.0,North,9.2,-,N/A,,Mostly Cloudy,360,2012-10-07 12:54:00
8:54 AM,46.9,39.9,77,30.27,10.0,North,11.5,-,N/A,,Mostly Cloudy,360,2012-10-07 13:54:00
9:54 AM,50.0,39.0,66,30.26,10.0,NNE,6.9,-,N/A,,Mostly Cloudy,30,2012-10-07 14:54:00
10:54 AM,52.0,37.0,57,30.26,10.0,NNE,6.9,-,N/A,,Mostly Cloudy,30,2012-10-07 15:54:00
11:54 AM,55.9,39.0,53,30.25,10.0,North,9.2,-,N/A,,Scattered Clouds,360,2012-10-07 16:54:00
12:54 PM,57.0,37.0,47,30.25,10.0,Calm,Calm,-,N/A,,Scattered Clouds,0,2012-10-07 17:54:00
1:54 PM,57.9,39.9,51,30.20,10.0,Variable,5.8,-,N/A,,Mostly Cloudy,0,2012-10-07 18:54:00
2:54 PM,57.9,32.0,37,30.19,10.0,North,5.8,-,N/A,,Mostly Cloudy,10,2012-10-07 19:54:00
3:54 PM,59.0,35.1,41,30.18,10.0,Variable,4.6,-,N/A,,Scattered Clouds,0,2012-10-07 20:54:00
4:54 PM,57.0,36.0,45,30.17,10.0,North,9.2,-,N/A,,Mostly Cloudy,350,2012-10-07 21:54:00
5:54 PM,55.0,35.1,47,30.17,10.0,North,9.2,-,N/A,,Mostly Cloudy,10,2012-10-07 22:54:00
6:54 PM,54.0,37.0,53,30.18,10.0,NNW,5.8,-,N/A,,Mostly Cloudy,330,2012-10-07 23:54:00
7:54 PM,54.0,37.0,53,30.18,10.0,North,3.5,-,N/A,,Mostly Cloudy,360,2012-10-08 00:54:00
8:54 PM,54.0,37.0,53,30.19,10.0,North,5.8,-,N/A,,Mostly Cloudy,10,2012-10-08 01:54:00
9:54 PM,53.1,37.9,57,30.20,10.0,North,5.8,-,N/A,,Mostly Cloudy,10,2012-10-08 02:54:00
10:54 PM,54.0,37.0,53,30.18,10.0,NNE,8.1,-,N/A,,Overcast,30,2012-10-08 03:54:00
11:54 PM,53.1,37.9,57,30.18,10.0,North,5.8,-,N/A,,Overcast,10,2012-10-08 04:54:00